This is the latest recevied weather packets stored in our database for station/object HB0PJ-13. If no packets are shown the sender has not sent any weather packets the latest 10 day(s).
| Time | Temp. | Humidity | Pressure | Rain* | Wind** | Luminosity | Snow |
|---|---|---|---|---|---|---|---|
| 1777902543 | 23.33° C | 22% | 955.2 hPa | - | - | 31 W/m² | - |
| 1777902423 | 23.33° C | 21% | 955 hPa | - | - | 30 W/m² | - |
| 1777902303 | 23.33° C | 22% | 955.1 hPa | - | - | 31 W/m² | - |
| 1777902183 | 23.33° C | 22% | 955.2 hPa | - | - | 31 W/m² | - |
| 1777902063 | 23.33° C | 22% | 955.1 hPa | - | - | 30 W/m² | - |
| 1777901943 | 23.33° C | 21% | 955.1 hPa | - | - | 29 W/m² | - |
| 1777901823 | 23.33° C | 21% | 955.1 hPa | - | - | 29 W/m² | - |
| 1777901703 | 23.33° C | 22% | 955.1 hPa | - | - | 31 W/m² | - |
| 1777901583 | 23.33° C | 21% | 955.2 hPa | - | - | 35 W/m² | - |
| 1777901343 | 23.33° C | 21% | 955 hPa | - | - | 29 W/m² | - |
| 1777901223 | 23.33° C | 21% | 955.1 hPa | - | - | 30 W/m² | - |
| 1777901103 | 23.33° C | 21% | 955 hPa | - | - | 27 W/m² | - |
| 1777900983 | 23.33° C | 21% | 955 hPa | - | - | 28 W/m² | - |
| 1777900863 | 23.33° C | 21% | 955.2 hPa | - | - | 28 W/m² | - |
| 1777900743 | 23.33° C | 21% | 955.1 hPa | - | - | 29 W/m² | - |
| 1777900623 | 23.33° C | 21% | 955.1 hPa | - | - | 29 W/m² | - |
| 1777900383 | 23.33° C | 21% | 955.2 hPa | - | - | 29 W/m² | - |
| 1777900263 | 23.33° C | 21% | 955.2 hPa | - | - | 28 W/m² | - |
| 1777900143 | 23.33° C | 21% | 955.2 hPa | - | - | 27 W/m² | - |
| 1777899903 | 23.33° C | 22% | 955.3 hPa | - | - | 26 W/m² | - |
| 1777899783 | 23.33° C | 21% | 955.2 hPa | - | - | 28 W/m² | - |
| 1777899663 | 23.33° C | 22% | 955.2 hPa | - | - | 29 W/m² | - |
| 1777899543 | 23.33° C | 22% | 955.2 hPa | - | - | 29 W/m² | - |
| 1777899423 | 23.33° C | 21% | 955.1 hPa | - | - | 29 W/m² | - |
| 1777899303 | 23.33° C | 22% | 955.2 hPa | - | - | 27 W/m² | - |
* Rain since midnight (hover to see other rain measurements)
** Current wind speed in m/s (hover to see current wind gust speed)